Regional Weather Roundup
Issued by NWS Charleston, SC

Home | Current Version | Previous Version | Text Only | Print | Product List | Glossary On
Versions: 1 2 3 4 5 6 7 8 9 10 11 12 13 14 15 16 17 18 19 20 21 22 23 24 25 26 27 28 29 30 31 32 33 34 35 36 37 38 39 40 41 42 43 44 45 46 47 48 49 50
000
ASUS42 KCHS 261125
RWRCHS

REGIONAL WEATHER ROUNDUP
NATIONAL WEATHER SERVICE CHARLESTON SC
600 AM EST FRI DEC 26 2014

NOTE: "FAIR" INDICATES FEW OR NO CLOUDS BELOW 12,000 FEET WITH NO
SIGNIFICANT WEATHER AND/OR OBSTRUCTIONS TO VISIBILITY.

NOT ALL STATIONS ARE QUALITY CONTROLLED BY THE NATIONAL
WEATHER SERVICE. USE DATA WITH CAUTION...ESPECIALLY
DEWPOINT OBSERVATIONS.

SCZ027-030-031-034>040-042>050-261200-
...SOUTHEAST SOUTH CAROLINA...

CITY           SKY/WX    TMP DP  RH WIND       PRES   REMARKS
N CHARLESTON   CLEAR     36  35  96 N6        30.28R WCI  31
WATERFRONT PRK   N/A     45 N/A N/A NW3         N/A
MOUNT PLEASANT FAIR      37  37 100 CALM      30.29R
PINOPOLIS      NOT AVBL
MONCKS CORNER  FAIR      37  36  93 CALM      30.30R
SUMMERVILLE    FOG       36  36 100 CALM      30.30S VSB 1
BEAUFORT MCAS  CLEAR     38  36  92 N3        30.29R
BEAUFORT ARPT  FAIR      41  41 100 N3        30.28R
HILTON HEAD IS NOT AVBL
WALTERBORO     SUNNY     34 N/A N/A CALM      30.30S
ALLENDALE      FAIR      36  36 100 CALM      30.29R

...SOUTHERN MIDLANDS AND PEE DEE...

CITY           SKY/WX    TMP DP  RH WIND       PRES   REMARKS
GEORGETOWN     NOT AVBL
KINGSTREE      NOT AVBL
ORANGEBURG     CLEAR     35  33  92 CALM      30.29R
BARNWELL         N/A     32  32 100 CALM      30.30R
AIKEN          FAIR      32  32 100 CALM      30.31S
MANNING        FAIR      34 N/A N/A CALM      30.30R
COLUMBIA       CLOUDY    32  30  92 CALM      30.30R
SUMTER         CLEAR     34  32  92 CALM      30.28R
FLORENCE       CLEAR     35  34  96 NE3       30.29R
MYRTLE BEACH   CLEAR     39  36  87 CALM      30.29R
N MYRTLE BEACH CLEAR     36  34  92 CALM      30.29R FOG

$$

GAZ063-065-086>088-099>101-113>116-118-119-134>141-150-261200-
...SOUTHEAST GEORGIA...

CITY           SKY/WX    TMP DP  RH WIND       PRES   REMARKS
SAVANNAH ARPT  CLEAR     37  36  93 CALM      30.29R FOG
HUNTER AAF     CLEAR     35  35 100 NW2       30.26R
FORT STEWART   PTCLDY    35  33  94 CALM      30.27R
STATESBORO     CLEAR     33  33 100 CALM      30.30R
SYLVANIA       FAIR      34  34 100 CALM      30.30R
CLAXTON          N/A     34  34 100 CALM      30.30R FOG

...CSRA...CENTRAL AND FAR SOUTHEAST GEORGIA...

CITY           SKY/WX    TMP DP  RH WIND       PRES   REMARKS
THOMSON        PTCLDY    31  31 100 CALM      30.33R
AUGUSTA-BUSH   FOG       33  33 100 CALM      30.30R VSB<1/4
AUGUSTA-DANIEL CLEAR     38  35  89 CALM      30.28S
SWAINSBORO     FAIR      34  34 100 CALM      30.31R
VIDALIA        CLEAR     36  36 100 CALM      30.29R
EASTMAN        FOG       32  32 100 CALM      30.31S VSB 3/4
HAZLEHURST     FAIR      38  38 100 CALM      30.27R
ALMA           PTCLDY    35  34  96 CALM      30.27S FOG
WAYCROSS       CLEAR     39  39  99 CALM      30.28R
JESUP          FAIR      36  34  93 CALM      30.29R
BAXLEY         FAIR      37  37 100 CALM      30.27S
BRUNSWICK      CLEAR     36  36 100 CALM      30.28S
SAINT SIMONS   CLEAR     40  39  97 CALM      30.27S

$$

SCZ027-028-034-036>038-045-046-048>050-GAZ119-141-261200-
...LAKE AND SUPPLEMENTAL COASTAL OBSERVATIONS...

STATION/POSITION TIME  TEMP    WIND        PRES    WAVE   SWELL
                       AIR SEA DIR/SP/G            HT/PER HT/PER/DIR
                 (UTC) (F)     (DEG/KT/KT) (MB)    (FT/S) (FT/S/D)
UPR LAKE MARION  NOT AVBL
WINYAH BAY       1100   38     310/  3     1024.0S
LAKE MURRAY      1000   39        CALM     1025.1S
ACE BASIN NERRS  NOT AVBL
FORT PULASKI     1100   45 55  310/  3/  4 1025.6R
SAPELO ISLAND    1100   39      30/  3     1025.0S

$$

ANZ835-935-AMZ111-154-330-350-352-354-370-450-454-472-261200-
...C-MAN AND BUOY OBSERVATIONS...

STATION/POSITION TIME  TEMP    WIND        PRES    WAVE   SWELL
                       AIR SEA DIR/SP/G            HT/PER HT/PER/DIR
                 (UTC) (F)     (DEG/KT/KT) (MB)    (FT/S) (FT/S/D)
BUOY 41004       1100   60 71   60/  6/ 10 1024.0R   2/ 8   2/ 8
BUOY 41008       1100   56 58   50/  8/  8 1024.8R   2/ 9   2/120/ 9
FOLLY BEACH CMAN 1100   45     330/  4/  6 1025.6R
CAPERS NEARSHORE 1000   52      70/  8/  8   N/A
FRIPP NEARSHORE  NOT AVBL


STATION/POSITION TIME  TEMP    WIND        PRES    WAVE   SWELL
                       AIR SEA DIR/SP/G            HT/PER HT/PER/DIR
                 (UTC) (F)     (DEG/KT/KT) (MB)    (FT/S) (FT/S/D)
5E ST. MARYS GA  1100      61                N/A     2/ 9
FRYING PAN BUOY  1100   59 69   80/  8/ 10 1025.0S   3/ 7   2/160/ 7
BUOY 41025       1100   54                 1025.0R   3/ 9
CAPE LOOKOUT NC  1100   50      10/  7/  8 1025.3R
BUOY 41002       1015   67 71   50/ 10/ 14 1023.7R   6/ 7   5/250/ 7
BUOY 41010       1100   69 77   50/ 10/ 12 1022.5R   4/ 6   3/340/ 6
ST AUGUSTINE FL  1100   54     340/  4/  6 1024.5R


$$


USA.gov is the U.S. government's official web portal to all federal, state and local government web resources and services.